TimeEDT,TemperatureF,Dew PointF,Humidity,Sea Level PressureIn,VisibilityMPH,Wind Direction,Wind SpeedMPH,Gust SpeedMPH,PrecipitationIn,Events,Conditions,WindDirDegrees,DateUTC
12:15 AM,46.9,43.0,86,30.23,10.0,North,4.6,-,N/A,Rain,Rain,10,2012-10-12 04:15:00
12:35 AM,46.4,44.6,93,30.23,4.0,ENE,4.6,-,N/A,Rain,Rain,70,2012-10-12 04:35:00
12:55 AM,46.6,43.3,88,30.22,5.0,Calm,Calm,-,N/A,,Unknown,0,2012-10-12 04:55:00
1:15 AM,45.9,44.2,94,30.24,5.0,Calm,Calm,-,N/A,Rain,Light Rain,0,2012-10-12 05:15:00
1:35 AM,45.7,43.5,92,30.25,5.0,NE,15.0,19.6,N/A,Rain,Heavy Rain,50,2012-10-12 05:35:00
2:15 AM,43.0,41.0,93,30.27,10.0,ENE,3.5,-,N/A,Rain,Light Rain,70,2012-10-12 06:15:00
2:35 AM,42.8,41.0,93,30.27,10.0,Calm,Calm,-,N/A,,Overcast,0,2012-10-12 06:35:00
2:55 AM,42.8,41.0,93,30.28,10.0,Calm,Calm,-,N/A,,Mostly Cloudy,0,2012-10-12 06:55:00
3:15 AM,42.3,41.0,95,30.29,10.0,Calm,Calm,-,N/A,,Mostly Cloudy,0,2012-10-12 07:15:00
3:35 AM,42.1,41.0,96,30.29,10.0,Calm,Calm,-,N/A,,Overcast,0,2012-10-12 07:35:00
3:55 AM,41.9,41.0,97,30.30,10.0,Calm,Calm,-,N/A,,Overcast,0,2012-10-12 07:55:00
4:15 AM,42.1,41.0,96,30.30,10.0,Calm,Calm,-,N/A,,Overcast,0,2012-10-12 08:15:00
4:35 AM,42.1,39.6,91,30.30,10.0,ENE,3.5,-,N/A,,Overcast,70,2012-10-12 08:35:00
4:55 AM,42.8,38.1,84,30.31,10.0,NE,4.6,-,N/A,,Overcast,50,2012-10-12 08:55:00
5:15 AM,42.3,36.7,81,30.32,10.0,NE,6.9,-,N/A,,Overcast,50,2012-10-12 09:15:00
5:35 AM,41.9,36.5,81,30.33,10.0,ENE,5.8,-,N/A,,Overcast,60,2012-10-12 09:35:00
5:55 AM,40.3,36.5,86,30.33,10.0,NE,5.8,-,N/A,,Mostly Cloudy,40,2012-10-12 09:55:00
6:15 AM,39.6,35.8,86,30.34,10.0,ENE,4.6,-,N/A,,Scattered Clouds,60,2012-10-12 10:15:00
6:56 AM,38.3,34.7,87,30.36,10.0,Calm,Calm,-,N/A,,Clear,0,2012-10-12 10:56:00
7:15 AM,37.4,34.0,87,30.37,10.0,East,3.5,-,N/A,,Clear,80,2012-10-12 11:15:00
7:35 AM,36.5,33.8,90,30.37,10.0,Calm,Calm,-,N/A,,Clear,0,2012-10-12 11:35:00
7:55 AM,36.1,33.4,90,30.38,10.0,Calm,Calm,-,N/A,,Clear,0,2012-10-12 11:55:00
8:15 AM,36.3,33.3,89,30.39,10.0,ENE,3.5,-,N/A,,Clear,70,2012-10-12 12:15:00
8:35 AM,37.2,33.4,86,30.41,10.0,Calm,Calm,-,N/A,,Clear,0,2012-10-12 12:35:00
8:55 AM,38.3,34.5,86,30.42,10.0,East,3.5,-,N/A,,Clear,90,2012-10-12 12:55:00
9:15 AM,39.9,35.4,84,30.42,10.0,ENE,5.8,-,N/A,,Clear,70,2012-10-12 13:15:00
9:35 AM,41.4,35.6,80,30.43,10.0,East,3.5,-,N/A,,Clear,80,2012-10-12 13:35:00
9:55 AM,42.8,36.0,77,30.44,10.0,ENE,4.6,-,N/A,,Clear,70,2012-10-12 13:55:00
10:15 AM,44.1,35.6,72,30.44,10.0,ENE,6.9,-,N/A,,Clear,70,2012-10-12 14:15:00
10:35 AM,45.1,35.1,68,30.45,10.0,ENE,9.2,-,N/A,,Clear,70,2012-10-12 14:35:00
10:55 AM,46.0,33.6,62,30.45,10.0,East,9.2,-,N/A,,Clear,100,2012-10-12 14:55:00
11:15 AM,46.8,33.4,60,30.45,10.0,ENE,10.4,-,N/A,,Clear,60,2012-10-12 15:15:00
11:35 AM,48.2,33.8,58,30.45,10.0,East,11.5,-,N/A,,Clear,100,2012-10-12 15:35:00
11:55 AM,48.2,32.2,54,30.46,10.0,ENE,4.6,-,N/A,,Clear,70,2012-10-12 15:55:00
12:16 PM,49.1,29.3,46,30.46,10.0,East,10.4,-,N/A,,Clear,80,2012-10-12 16:16:00
12:35 PM,49.3,31.3,50,30.45,10.0,NE,9.2,-,N/A,,Clear,40,2012-10-12 16:35:00
12:55 PM,49.5,30.9,49,30.45,10.0,NE,3.5,-,N/A,,Clear,40,2012-10-12 16:55:00
1:15 PM,49.8,31.3,49,30.45,10.0,ESE,3.5,-,N/A,,Clear,110,2012-10-12 17:15:00
1:35 PM,50.5,30.7,47,30.44,10.0,ENE,9.2,-,N/A,,Clear,60,2012-10-12 17:35:00
1:55 PM,50.5,29.8,45,30.43,10.0,ENE,8.1,-,N/A,,Clear,60,2012-10-12 17:55:00
2:35 PM,51.6,28.6,41,30.42,10.0,ESE,8.1,-,N/A,,Clear,110,2012-10-12 18:35:00
2:56 PM,52.0,28.0,40,30.42,10.0,ENE,3.5,-,N/A,,Clear,70,2012-10-12 18:56:00
3:15 PM,52.5,27.7,38,30.41,10.0,Calm,Calm,-,N/A,,Clear,0,2012-10-12 19:15:00
3:35 PM,52.9,28.9,40,30.40,10.0,ESE,4.6,-,N/A,,Clear,120,2012-10-12 19:35:00
3:55 PM,53.1,28.2,38,30.40,10.0,SW,3.5,-,N/A,,Clear,220,2012-10-12 19:55:00
4:15 PM,52.9,26.8,36,30.40,10.0,Calm,Calm,-,N/A,,Clear,0,2012-10-12 20:15:00
4:35 PM,53.1,27.1,37,30.39,10.0,SSE,8.1,-,N/A,,Clear,160,2012-10-12 20:35:00
4:55 PM,52.9,25.5,35,30.39,10.0,South,5.8,-,N/A,,Clear,170,2012-10-12 20:55:00
5:15 PM,53.1,28.2,38,30.38,10.0,Calm,Calm,-,N/A,,Clear,0,2012-10-12 21:15:00
5:35 PM,53.1,26.4,36,30.37,10.0,South,5.8,-,N/A,,Clear,170,2012-10-12 21:35:00
6:15 PM,52.0,26.6,37,30.36,10.0,Calm,Calm,-,N/A,,Clear,0,2012-10-12 22:15:00
6:55 PM,48.2,34.0,58,30.36,10.0,Calm,Calm,-,N/A,,Clear,0,2012-10-12 22:55:00
7:15 PM,46.0,34.2,63,30.36,10.0,Calm,Calm,-,N/A,,Clear,0,2012-10-12 23:15:00
7:35 PM,44.4,34.5,68,30.36,10.0,Calm,Calm,-,N/A,,Clear,0,2012-10-12 23:35:00
7:55 PM,41.2,34.9,78,30.36,10.0,Calm,Calm,-,N/A,,Clear,0,2012-10-12 23:55:00
8:15 PM,40.3,34.5,80,30.37,10.0,Calm,Calm,-,N/A,,Clear,0,2012-10-13 00:15:00
8:35 PM,38.8,33.8,82,30.37,10.0,Calm,Calm,-,N/A,,Clear,0,2012-10-13 00:35:00
8:55 PM,37.4,33.8,87,30.36,10.0,Calm,Calm,-,N/A,,Clear,0,2012-10-13 00:55:00
9:15 PM,36.9,33.6,88,30.36,10.0,Calm,Calm,-,N/A,,Clear,0,2012-10-13 01:15:00
9:35 PM,36.1,32.9,88,30.36,10.0,Calm,Calm,-,N/A,,Clear,0,2012-10-13 01:35:00
10:15 PM,35.1,32.2,89,30.36,10.0,Calm,Calm,-,N/A,,Clear,0,2012-10-13 02:15:00
10:35 PM,34.3,32.0,91,30.36,10.0,Calm,Calm,-,N/A,,Clear,0,2012-10-13 02:35:00
10:55 PM,34.2,32.0,92,30.35,10.0,Calm,Calm,-,N/A,,Clear,0,2012-10-13 02:55:00
11:15 PM,34.2,31.8,91,30.34,10.0,Calm,Calm,-,N/A,,Clear,0,2012-10-13 03:15:00
11:35 PM,33.8,30.9,89,30.33,10.0,SE,5.8,-,N/A,,Clear,130,2012-10-13 03:35:00
11:55 PM,38.3,30.6,74,30.32,10.0,ESE,4.6,-,N/A,,Clear,120,2012-10-13 03:55:00